When you browse on this site, cookies collect data to enhance your experience and personalize the content and advertising you see.
Visit our Privacy Policy to learn more. By continuing to use the site, you agree to this use of cookies and data.
  • In United Kingdom
  • List of Countries
  • For 7 days
  • Water Temperature
  • Weather Map
  • Weather Widgets
  • user-avatar
    Login

    Hourly Weather Heidelberg

    Today, 24 August, Saturday

    Time Temperature Precipitation Wind Pressure Humidity
    00:00 +19°C° 0 mm 1 mps 737 mmHg 71%
    01:00 +19°C° 0 mm 1 mps 737 mmHg 74%
    02:00 +18°C° 0 mm 1 mps 737 mmHg 77%
    03:00 +18°C° 0 mm 1 mps 737 mmHg 80%
    04:00 +18°C° 0 mm 1 mps 737 mmHg 82%
    05:00 +18°C° 0 mm 1 mps 737 mmHg 81%
    06:00 +17°C° 0 mm 2 mps 737 mmHg 80%
    07:00 +18°C° 0 mm 2 mps 737 mmHg 79%
    08:00 +20°C° 0 mm 2 mps 737 mmHg 72%
    09:00 +23°C° 0 mm 2 mps 737 mmHg 65%
    10:00 +25°C° 0 mm 2 mps 737 mmHg 58%
    11:00 +26°C° 0 mm 2 mps 737 mmHg 54%
    12:00 +27°C° 0 mm 2 mps 737 mmHg 50%
    13:00 +28°C° 0 mm 2 mps 736 mmHg 46%
    14:00 +29°C° 0 mm 2 mps 736 mmHg 47%
    15:00 +29°C° 0 mm 2 mps 736 mmHg 47%
    16:00 +29°C° 0 mm 2 mps 735 mmHg 48%
    17:00 +27°C° 0 mm 2 mps 735 mmHg 54%
    18:00 +26°C° 0 mm 2 mps 735 mmHg 60%
    19:00 +25°C° 0 mm 1 mps 735 mmHg 67%
    20:00 +24°C° 0 mm 1 mps 735 mmHg 70%
    21:00 +23°C° 0 mm 1 mps 735 mmHg 74%
    22:00 +22°C° 0 mm 1 mps 735 mmHg 77%
    23:00 +21°C° 0 mm 1 mps 735 mmHg 79%

    Tomorrow, 25 August, Sunday

    Time Temperature Precipitation Wind Pressure Humidity
    00:00 +21°C° 0 mm 1 mps 735 mmHg 80%
    01:00 +21°C° 0 mm 1 mps 734 mmHg 82%
    02:00 +20°C° 0 mm 1 mps 734 mmHg 83%
    03:00 +18°C° 0 mm 0 mps 734 mmHg 84%
    04:00 +18°C° 0 mm 0 mps 734 mmHg 85%
    05:00 +18°C° 0 mm 0 mps 734 mmHg 84%
    06:00 +18°C° 0 mm 0 mps 734 mmHg 83%
    07:00 +19°C° 0 mm 0 mps 734 mmHg 81%
    08:00 +21°C° 0 mm 0 mps 735 mmHg 74%
    09:00 +23°C° 0 mm 0 mps 735 mmHg 67%
    10:00 +25°C° 0 mm 0 mps 735 mmHg 60%
    11:00 +26°C° 0 mm 0 mps 735 mmHg 55%
    12:00 +27°C° 0 mm 0 mps 735 mmHg 51%
    13:00 +31°C° 0 mm 1 mps 735 mmHg 46%
    14:00 +31°C° 0 mm 1 mps 735 mmHg 44%
    15:00 +31°C° 0 mm 1 mps 735 mmHg 42%
    16:00 +31°C° 0 mm 1 mps 734 mmHg 40%
    17:00 +29°C° 0 mm 1 mps 734 mmHg 45%
    18:00 +28°C° 0 mm 1 mps 734 mmHg 50%
    19:00 +24°C° 0 mm 0 mps 734 mmHg 55%
    20:00 +23°C° 0 mm 0 mps 735 mmHg 58%
    21:00 +22°C° 0 mm 0 mps 735 mmHg 60%
    22:00 +21°C° 0 mm 0 mps 735 mmHg 63%
    23:00 +21°C° 0 mm 0 mps 735 mmHg 65%

    Day after tomorrow, 26 August, Monday

    Time Temperature Precipitation Wind Pressure Humidity
    00:00 +20°C° 0 mm 0 mps 735 mmHg 66%
    01:00 +20°C° 0 mm 0 mps 735 mmHg 68%
    02:00 +19°C° 0 mm 0 mps 735 mmHg 69%
    03:00 +19°C° 0 mm 0 mps 735 mmHg 71%
    04:00 +18°C° 0 mm 0 mps 734 mmHg 73%
    05:00 +19°C° 0 mm 0 mps 734 mmHg 72%
    06:00 +20°C° 0 mm 0 mps 734 mmHg 71%
    07:00 +20°C° 0 mm 0 mps 734 mmHg 70%
    08:00 +22°C° 0 mm 0 mps 735 mmHg 64%
    09:00 +24°C° 0 mm 0 mps 735 mmHg 58%
    10:00 +26°C° 0 mm 0 mps 735 mmHg 52%
    11:00 +27°C° 0 mm 0 mps 735 mmHg 48%
    12:00 +30°C° 0 mm 1 mps 735 mmHg 45%
    13:00 +32°C° 0 mm 1 mps 735 mmHg 41%
    14:00 +32°C° 0 mm 1 mps 734 mmHg 41%
    15:00 +31°C° 0 mm 1 mps 734 mmHg 40%
    16:00 +31°C° 0 mm 1 mps 734 mmHg 40%
    17:00 +30°C° 0 mm 1 mps 734 mmHg 45%
    18:00 +28°C° 0 mm 1 mps 733 mmHg 51%
    19:00 +27°C° 0 mm 1 mps 733 mmHg 56%
    20:00 +26°C° 0 mm 1 mps 733 mmHg 59%
    21:00 +25°C° 0 mm 1 mps 733 mmHg 61%
    22:00 +24°C° 0 mm 1 mps 734 mmHg 64%
    23:00 +23°C° 0 mm 1 mps 733 mmHg 66%

    27 August, Tuesday

    Time Temperature Precipitation Wind Pressure Humidity
    00:00 +23°C° 0 mm 1 mps 733 mmHg 68%
    01:00 +21°C° 0 mm 0 mps 733 mmHg 70%
    02:00 +20°C° 0 mm 0 mps 733 mmHg 72%
    03:00 +20°C° 0 mm 0 mps 733 mmHg 73%
    04:00 +19°C° 0 mm 0 mps 733 mmHg 75%
    05:00 +20°C° 0 mm 0 mps 733 mmHg 74%
    06:00 +22°C° 0 mm 1 mps 733 mmHg 73%
    07:00 +23°C° 0 mm 1 mps 733 mmHg 72%
    08:00 +24°C° 0 mm 1 mps 733 mmHg 65%
    09:00 +26°C° 0 mm 1 mps 733 mmHg 58%
    10:00 +28°C° 0 mm 1 mps 734 mmHg 51%
    11:00 +30°C° 0 mm 1 mps 734 mmHg 46%
    12:00 +31°C° 0 mm 1 mps 733 mmHg 41%
    13:00 +32°C° 0 mm 1 mps 733 mmHg 36%
    14:00 +32°C° 0 mm 1 mps 733 mmHg 34%
    15:00 +32°C° 0 mm 1 mps 733 mmHg 32%
    16:00 +32°C° 0 mm 1 mps 733 mmHg 30%
    17:00 +31°C° 0 mm 1 mps 732 mmHg 35%
    18:00 +29°C° 0 mm 1 mps 732 mmHg 41%
    19:00 +27°C° 0 mm 1 mps 732 mmHg 47%
    20:00 +26°C° 0 mm 1 mps 733 mmHg 50%
    21:00 +25°C° 0 mm 1 mps 733 mmHg 53%
    22:00 +24°C° 0 mm 1 mps 733 mmHg 57%
    23:00 +24°C° 0 mm 1 mps 733 mmHg 59%

    28 August, Wednesday

    Time Temperature Precipitation Wind Pressure Humidity
    00:00 +23°C° 0 mm 1 mps 733 mmHg 61%
    01:00 +23°C° 0 mm 1 mps 733 mmHg 63%
    02:00 +22°C° 0 mm 1 mps 733 mmHg 63%
    03:00 +22°C° 0 mm 1 mps 733 mmHg 64%
    04:00 +22°C° 0 mm 1 mps 733 mmHg 65%
    05:00 +22°C° 0 mm 1 mps 733 mmHg 65%
    06:00 +22°C° 0 mm 1 mps 733 mmHg 65%
    07:00 +23°C° 0 mm 1 mps 733 mmHg 66%
    08:00 +25°C° 0 mm 1 mps 733 mmHg 60%
    09:00 +26°C° 0 mm 1 mps 733 mmHg 54%
    10:00 +28°C° 0 mm 1 mps 734 mmHg 48%
    11:00 +29°C° 0 mm 1 mps 733 mmHg 45%
    12:00 +30°C° 0 mm 1 mps 733 mmHg 42%
    13:00 +31°C° 0 mm 1 mps 733 mmHg 38%
    14:00 +32°C° 0 mm 1 mps 733 mmHg 37%
    15:00 +32°C° 0 mm 1 mps 733 mmHg 35%
    16:00 +32°C° 0 mm 1 mps 733 mmHg 33%
    17:00 +30°C° 0 mm 1 mps 733 mmHg 38%
    18:00 +29°C° 0 mm 1 mps 732 mmHg 43%
    19:00 +25°C° 0 mm 0 mps 732 mmHg 48%
    20:00 +24°C° 0 mm 0 mps 733 mmHg 50%
    21:00 +23°C° 0 mm 0 mps 733 mmHg 52%
    22:00 +23°C° 0 mm 0 mps 733 mmHg 54%
    23:00 +22°C° 0 mm 0 mps 733 mmHg 56%

    29 August, Thursday

    Time Temperature Precipitation Wind Pressure Humidity
    00:00 +22°C° 0 mm 0 mps 732 mmHg 57%
    01:00 +21°C° 0 mm 0 mps 732 mmHg 59%
    02:00 +21°C° 0 mm 0 mps 732 mmHg 60%
    03:00 +20°C° 0 mm 0 mps 732 mmHg 62%
    04:00 +20°C° 0 mm 0 mps 732 mmHg 63%
    05:00 +20°C° 0 mm 0 mps 732 mmHg 64%
    06:00 +21°C° 0 mm 0 mps 733 mmHg 64%
    07:00 +21°C° 0 mm 0 mps 733 mmHg 65%
    08:00 +22°C° 0 mm 0 mps 733 mmHg 60%
    09:00 +24°C° 0 mm 0 mps 733 mmHg 55%
    10:00 +26°C° 0 mm 0 mps 733 mmHg 50%
    11:00 +29°C° 0 mm 1 mps 733 mmHg 46%
    12:00 +30°C° 0 mm 1 mps 733 mmHg 43%
    13:00 +31°C° 0 mm 1 mps 733 mmHg 39%
    14:00 +31°C° 0 mm 1 mps 733 mmHg 39%
    15:00 +31°C° 0 mm 1 mps 733 mmHg 39%
    16:00 +31°C° 0 mm 1 mps 733 mmHg 38%
    17:00 +29°C° 0 mm 1 mps 733 mmHg 43%
    18:00 +28°C° 0 mm 1 mps 732 mmHg 48%
    19:00 +26°C° 0 mm 1 mps 732 mmHg 53%
    20:00 +25°C° 0.1 mm 1 mps 732 mmHg 56%
    21:00 +25°C° 0.1 mm 1 mps 733 mmHg 59%
    22:00 +24°C° 0.1 mm 1 mps 733 mmHg 62%
    23:00 +23°C° 0.1 mm 1 mps 733 mmHg 64%
    Show more